Morrisville, NC

11:58 PM EST on December 07, 2016 (GMT -0500)
Raleigh-Durham International

Weather History for KRDU - October, 2014

Change the Weather History Date:

Friday, October 3, 2014

  Actual Average Record
Temperature  
Mean Temperature 75 °F 66 °F  
Max Temperature 85 °F 77 °F 91 °F (1954)
Min Temperature 65 °F 55 °F 32 °F (1974)
Degree Days  
Heating Degree Days 0 3  
Month to date heating degree days 0 7  
Since 1 July heating degree days 10 28  
Cooling Degree Days 10 3  
Month to date cooling degree days 20 10  
Year to date cooling degree days 1612 1678  
Growing Degree Days 24 (Base 50)    
Moisture  
Dew Point 63 °F    
Average Humidity 68    
Maximum Humidity 93    
Minimum Humidity 43    
Precipitation  
Precipitation 0.09 in 0.11 in 1.23 in (1988)
Month to date precipitation 0.09 0.33  
Year to date precipitation 44.41 34.23  
Sea Level Pressure  
Sea Level Pressure 29.93 in    
Wind  
Wind Speed 8 mph (South)    
Max Wind Speed 20 mph    
Max Gust Speed 24 mph    
Visibility 8 miles    
Events Rain    
T = Trace of Precipitation, MM = Missing Value Source: NWS Daily Summary

Daily Weather History Graph

Daily Weather History Graph

Search for Another Location

Airport or City:

Trip Planner

Search our weather history database for the weather conditions in past years. The results will help you decide how hot, cold, wet, or windy it might be!

Date:

Astronomy

Oct. 03, 2014 Rise Set
Actual Time 7:11 AM EDT 6:55 PM EDT
Civil Twilight 6:46 AM EDT 7:21 PM EDT
Nautical Twilight 6:16 AM EDT 7:51 PM EDT
Astronomical Twilight 5:46 AM EDT 8:20 PM EDT
Moon 3:39 PM EDT (10/3) 1:40 AM EDT (10/3)
Length of Visible Light 12h 35m
Length of Day
11h 44m
Waxing Gibbous, 71% of the Moon is Illuminated
Oct 3
Waxing Gibbous
Oct 8
Full
Oct 15
Last Quarter
Oct 23
New
Oct 30
First Quarter

Hourly Weather History & Observations

Time (EDT) Temp. Heat Index Dew Point Humidity Pressure Visibility Wind Dir Wind Speed Gust Speed Precip Events Conditions
12:51 AM 68.0 °F - 64.0 °F 87% 30.05 in 8.0 mi SE 6.9 mph - N/A   Partly Cloudy
1:51 AM 66.9 °F - 64.0 °F 90% 30.05 in 6.0 mi Calm Calm - N/A   Scattered Clouds
2:51 AM 66.9 °F - 64.0 °F 90% 30.03 in 4.0 mi SE 4.6 mph - N/A   Scattered Clouds
3:51 AM 66.9 °F - 64.0 °F 90% 30.03 in 5.0 mi South 3.5 mph - N/A   Mostly Cloudy
4:51 AM 66.9 °F - 64.0 °F 90% 30.02 in 6.0 mi South 3.5 mph - N/A   Mostly Cloudy
5:51 AM 66.9 °F - 63.0 °F 87% 30.01 in 7.0 mi South 3.5 mph - N/A   Partly Cloudy
6:51 AM 66.0 °F - 62.1 °F 87% 30.02 in 6.0 mi South 3.5 mph - N/A   Scattered Clouds
7:51 AM 66.0 °F - 62.1 °F 87% 30.02 in 7.0 mi SSE 4.6 mph - N/A   Mostly Cloudy
8:51 AM 68.0 °F - 63.0 °F 84% 30.02 in 8.0 mi South 5.8 mph - N/A   Mostly Cloudy
9:51 AM 72.0 °F - 64.0 °F 76% 30.03 in 10.0 mi SW 8.1 mph - N/A   Mostly Cloudy
10:51 AM 75.9 °F - 63.0 °F 64% 30.01 in 10.0 mi SW 12.7 mph 18.4 mph N/A   Mostly Cloudy
11:51 AM 79.0 °F - 64.0 °F 60% 29.99 in 10.0 mi SSW 9.2 mph - N/A   Scattered Clouds
12:51 PM 82.0 °F 83.1 °F 63.0 °F 52% 29.95 in 10.0 mi SSW 11.5 mph 19.6 mph N/A   Scattered Clouds
1:51 PM 84.9 °F 85.4 °F 62.1 °F 46% 29.92 in 10.0 mi SW 16.1 mph - N/A   Scattered Clouds
2:51 PM 82.9 °F 82.8 °F 59.0 °F 44% 29.88 in 10.0 mi SSW 15.0 mph 21.9 mph N/A   Mostly Cloudy
3:51 PM 82.9 °F 82.6 °F 57.9 °F 42% 29.86 in 10.0 mi SSW 9.2 mph 19.6 mph N/A   Mostly Cloudy
4:51 PM 80.1 °F 80.6 °F 57.9 °F 47% 29.85 in 10.0 mi South 8.1 mph - N/A   Overcast
5:51 PM 77.0 °F - 61.0 °F 58% 29.84 in 10.0 mi SSW 9.2 mph - 0.00 in Rain Light Rain
6:51 PM 75.0 °F - 63.0 °F 66% 29.83 in 10.0 mi South 6.9 mph - 0.00 in   Overcast
7:51 PM 73.9 °F - 64.0 °F 71% 29.82 in 10.0 mi South 6.9 mph - 0.00 in   Overcast
8:51 PM 75.0 °F - 64.0 °F 69% 29.81 in 10.0 mi South 9.2 mph - N/A   Overcast
9:51 PM 73.9 °F - 66.0 °F 76% 29.80 in 10.0 mi South 8.1 mph - 0.00 in   Overcast
10:38 PM 73.4 °F - 66.2 °F 78% 29.81 in 3.0 mi SW 16.1 mph 20.7 mph 0.01 in Rain Rain
10:51 PM 71.6 °F - 68.0 °F 88% 29.80 in 3.0 mi SSW 10.4 mph - N/A Rain Rain
11:51 PM 72.0 °F - 68.0 °F 87% 29.76 in 10.0 mi SSW 8.1 mph - 0.00 in   Overcast